Regional Weather Roundup
Issued by NWS

Home | Current Version | Previous Version | Text Only | Print | Product List | Glossary On
Versions: 1 2 3 4 5 6 7 8 9 10 11 12 13 14 15 16 17 18 19 20 21 22 23 24 25 26 27 28 29 30 31 32 33 34 35 36 37 38 39 40 41 42 43 44 45 46 47 48 49 50
000
ASUS43 KFSD 261310
RWRSD

WEATHER ROUNDUP FOR SOUTH DAKOTA
NATIONAL WEATHER SERVICE SIOUX FALLS SD
800 AM CDT SAT JUL 26 2014

NOTE: "FAIR" INDICATES FEW OR NO CLOUDS BELOW 12,000 FEET WITH NO
SIGNIFICANT WEATHER AND/OR OBSTRUCTIONS TO VISIBILITY.


SDZ001>005-009-010-012>017-261400-
NORTHWEST AND NORTH CENTRAL SOUTH DAKOTA

CITY           SKY/WX    TMP DP  RH WIND       PRES   REMARKS
BUFFALO          N/A     59  45  59 NW18      29.96R
FAITH            N/A     62  48  60 N9        29.98R
MOBRIDGE       SUNNY     66  57  72 NW14      29.88R
$$

SDZ012>016-024>037-041>051-057-063-072>074-261400-
SOUTHWEST AND SOUTH CENTRAL SOUTH DAKOTA

CITY           SKY/WX    TMP DP  RH WIND       PRES   REMARKS
RAPID CTY ARPT SUNNY     64  46  52 NW21G32   30.01R
PIERRE         TSTM      69  68  96 SE8G17    29.85S FOG
CUSTER         SUNNY     65  32  29 N9        30.13R
ELLSWORTH AFB  SUNNY     64  45  49 N22       30.02R
PHILIP         CLOUDY    71  65  81 N15       29.91R
PINE RIDGE     MOSUNNY   61  53  75 W5        29.99R
WINNER         CLOUDY    73  68  84 SE15      29.81F
$$

SDZ004>011-016>023-039-040-261400-
NORTHEAST SOUTH DAKOTA

CITY           SKY/WX    TMP DP  RH WIND       PRES   REMARKS
ABERDEEN       MOSUNNY   64  62  93 CALM      29.84R
WATERTOWN      PTSUNNY   67  64  90 W8        29.87R
SISSETON         N/A     65  64  97 S3        29.81R
$$

SDZ017-020-022-023-036>040-048>070-261400-
SOUTHEAST SOUTH DAKOTA

CITY           SKY/WX    TMP DP  RH WIND       PRES   REMARKS
SIOUX FALLS    TSTM      72  69  90 S7        29.83F
HURON          TSTM      68  66  93 CALM      29.83R
CHAMBERLAIN    PTSUNNY   69  67  93 S12       29.80F
MITCHELL       MOSUNNY   73  69  87 SE12      29.81F
YANKTON        PTSUNNY   72  70  94 E6        29.86F
$$

ABBREVIATIONS USED IN REMARKS
   TC - TEMPERATURE IN CELSIUS
  WCI - WIND CHILL INDEX
   HX - HEAT INDEX
  VSB - VISIBILITY



USA.gov is the U.S. government's official web portal to all federal, state and local government web resources and services.